Change the Weather History Date:

Wednesday, March 26, 2014

  Actual Average Record
Temperature  
Mean Temperature 46 °F 42 °F  
Max Temperature 57 °F 57 °F 72 °F (1988)
Min Temperature 35 °F 27 °F 15 °F (2005)
Degree Days  
Heating Degree Days 19 23  
Month to date heating degree days 614 660  
Since 1 July heating degree days 5201 5222  
Cooling Degree Days 0 0  
Month to date cooling degree days 0 0  
Year to date cooling degree days 0 0  
Moisture  
Dew Point 26 °F    
Average Humidity 55    
Maximum Humidity 92    
Minimum Humidity 17    
Precipitation  
Precipitation 0.07 in 0.04 in 0.52 in (1981)
Month to date precipitation 0.19 1.14  
Year to date precipitation 1.13 3.00  
Sea Level Pressure  
Sea Level Pressure 29.58 in    
Wind  
Wind Speed 17 mph (SSW)    
Max Wind Speed 30 mph    
Max Gust Speed 41 mph    
Visibility 8 miles    
Events Fog , Rain , Snow , Thunderstorm    
T = Trace of Precipitation, MM = Missing Value Source: NWS Daily Summary

Daily Weather History Graph

Daily Weather History Graph

Search for Another Location

Airport or City:

Trip Planner

Search our weather history database for the weather conditions in past years. The results will help you decide how hot, cold, wet, or windy it might be!

Date:

Astronomy

Mar. 26, 2014 Rise Set
Actual Time 7:26 AM MDT 7:49 PM MDT
Civil Twilight 7:00 AM MDT 8:16 PM MDT
Nautical Twilight 6:29 AM MDT 8:47 PM MDT
Astronomical Twilight 5:58 AM MDT 9:18 PM MDT
Moon 4:33 AM MDT (3/26) 3:37 PM MDT (3/26)
Length of Visible Light 13h 15m
Length of Day
12h 23m
Waning Crescent, 21% of the Moon is Illuminated
Mar 26
Waning Crescent
Mar 30
New
Apr 7
First Quarter
Apr 15
Full
Apr 22
Last Quarter

Hourly Weather History & Observations

Time (MDT) Temp. Windchill Dew Point Humidity Pressure Visibility Wind Dir Wind Speed Gust Speed Precip Events Conditions
12:53 AM 52.0 °F - 9.0 °F 18% 29.55 in 10.0 mi SSW 16.1 mph 24.2 mph N/A   Clear
1:53 AM 48.9 °F - 9.0 °F 20% 29.54 in 10.0 mi South 11.5 mph - N/A   Clear
2:53 AM 48.0 °F - 10.0 °F 22% 29.52 in 10.0 mi SSW 11.5 mph - N/A   Clear
3:53 AM 46.0 °F 41.0 °F 10.0 °F 23% 29.50 in 10.0 mi SSW 10.4 mph - N/A   Clear
4:53 AM 50.0 °F - 14.0 °F 24% 29.46 in 10.0 mi South 11.5 mph - N/A   Clear
5:53 AM 48.9 °F - 17.1 °F 28% 29.44 in 10.0 mi SSW 13.8 mph 21.9 mph N/A   Clear
6:53 AM 50.0 °F - 19.9 °F 31% 29.42 in 10.0 mi South 16.1 mph 25.3 mph N/A   Clear
7:53 AM 48.9 °F - 18.0 °F 29% 29.45 in 10.0 mi SSW 20.7 mph 32.2 mph N/A   Clear
8:53 AM 50.0 °F - 21.0 °F 32% 29.47 in 10.0 mi SSW 21.9 mph 29.9 mph N/A   Mostly Cloudy
9:53 AM 50.0 °F - 19.9 °F 31% 29.48 in 10.0 mi SSW 25.3 mph 41.4 mph N/A   Clear
10:53 AM 50.0 °F - 21.9 °F 33% 29.50 in 10.0 mi SSW 21.9 mph 32.2 mph N/A   Clear
11:53 AM 52.0 °F - 21.9 °F 31% 29.48 in 10.0 mi SSW 24.2 mph 33.4 mph N/A   Clear
12:53 PM 55.0 °F - 21.9 °F 28% 29.46 in 10.0 mi South 24.2 mph 35.7 mph N/A   Mostly Cloudy
1:53 PM 50.0 °F - 21.0 °F 32% 29.49 in 10.0 mi WSW 17.3 mph 32.2 mph N/A   Overcast
2:53 PM 43.0 °F 34.8 °F 36.0 °F 76% 29.52 in 10.0 mi WNW 18.4 mph - 0.00 in Rain Light Rain
3:30 PM 43.0 °F 37.2 °F 35.1 °F 74% 29.62 in 8.0 mi WSW 10.4 mph 18.4 mph 0.02 in Rain , Thunderstorm Light Rain
3:45 PM 41.0 °F 33.1 °F 35.1 °F 79% 29.62 in 10.0 mi West 15.0 mph 23.0 mph 0.03 in Rain Light Rain
3:53 PM 41.0 °F 32.8 °F 35.1 °F 79% 29.55 in 9.0 mi WNW 16.1 mph - 0.03 in Rain Light Rain
4:53 PM 35.1 °F 26.4 °F 33.1 °F 92% 29.60 in 10.0 mi West 12.7 mph - 0.03 in Snow Light Snow
5:01 PM 35.1 °F 27.9 °F 33.1 °F 92% 29.67 in 5.0 mi West 9.2 mph - 0.01 in Snow Light Snow
5:06 PM 34.0 °F 26.6 °F 32.0 °F 92% 29.67 in 1.8 mi WSW 9.2 mph - 0.02 in Snow Light Snow
5:12 PM 32.0 °F 23.6 °F 30.9 °F 96% 29.67 in 0.8 mi SW 10.4 mph - 0.04 in Snow Light Snow
5:53 PM 32.0 °F 26.4 °F 30.9 °F 96% 29.64 in 0.5 mi Variable 5.8 mph - 0.15 in Fog , Snow Snow
6:13 PM 32.0 °F 23.6 °F 30.9 °F 96% 29.69 in 1.8 mi South 10.4 mph - 0.03 in Snow Light Snow
6:15 PM 33.1 °F 25.5 °F 30.9 °F 92% 29.69 in 2.5 mi SSE 9.2 mph - 0.03 in Snow Light Snow
6:22 PM 33.1 °F 25.5 °F 30.9 °F 92% 29.69 in 6.0 mi SSE 9.2 mph - 0.03 in Snow Light Snow
6:36 PM 34.0 °F 27.2 °F 32.0 °F 92% 29.69 in 10.0 mi SSE 8.1 mph - 0.03 in   Overcast
6:53 PM 35.1 °F 27.9 °F 30.9 °F 85% 29.62 in 10.0 mi South 9.2 mph - 0.03 in   Overcast
7:53 PM 34.0 °F 28.0 °F 30.9 °F 89% 29.64 in 10.0 mi South 6.9 mph - N/A   Scattered Clouds
8:53 PM 34.0 °F 31.0 °F 30.9 °F 89% 29.66 in 10.0 mi SSE 3.5 mph - N/A   Scattered Clouds
9:53 PM 33.1 °F - 30.0 °F 89% 29.68 in 10.0 mi Calm Calm - N/A   Clear
10:53 PM 33.1 °F 27.7 °F 30.0 °F 89% 29.69 in 10.0 mi WSW 5.8 mph - N/A   Partly Cloudy
11:53 PM 33.1 °F 26.1 °F 30.9 °F 92% 29.71 in 10.0 mi SSW 8.1 mph - N/A   Mostly Cloudy